Flag for Poland Weather past 2 weeks in Jastrzębie Zdrój, Poland

Now
54 °F

Fog.


Feels Like: 53 °F
Forecast: 44 / 64 °F
Wind: 6 mph from Northeast

Location: Ostrava / Mosnov


UV Index: 3 (Moderate)

Visibility: 4 mi


Pressure: 29.91 "Hg

Humidity: 74%

Dew point: 46 °F

Location of Jastrzębie ZdrójLocation

Historic Weather in Jastrzębie Zdrój

°F

Jastrzębie Zdrój temperature yesterday

Maximum temperature yesterday: 64 °F (at 5:00 PM)
Minimum temperature yesterday: 31 °F (at 5:00 AM)
Average temperature yesterday: 49 °F

Past Weeks' High & Low Weather Summary

 TemperatureHumidityPressure
High71 °F (Apr 8, 3:00 PM)97% (Apr 12, 8:00 AM)30.36 "Hg (Apr 12, 8:00 AM)
Low31 °F (Apr 12, 7:00 AM)31% (Apr 18, 5:00 PM)29.75 "Hg (Apr 18, 4:00 PM)
Average47 °F73%30.02 "Hg
* Reported Apr 4 11:00 AM — Apr 19 11:00 AM, Jastrzębie Zdrój, Weather by CustomWeather, © 2014

Note: Actual official high and low records may vary slightly from our data, if they occured in-between our weather recording intervals... More about our weather records

Advertising

Historic Weather Conditions — Data for Previous 24 hours

 ConditionsComfort  
Time TempWeatherWind HumidityBarometerVisibility
11:00 AM
Apr 19
50 °FFog.5 mph85%29.93 "Hg3 mi
10:00 AM47 °FFog.5 mph90%29.95 "Hg3 mi
9:00 AM46 °FLow clouds.5 mph90%29.94 "Hg2 mi
8:00 AM45 °FDrizzle. Low clouds.5 mph90%29.95 "Hg3 mi
7:00 AM44 °FFog.5 mph89%29.94 "Hg4 mi
6:00 AM44 °FFog.5 mph88%29.92 "Hg4 mi
5:00 AM45 °FOvercast.6 mph87%29.91 "Hg9 mi
4:00 AM44 °FOvercast.5 mph88%29.91 "Hg9 mi
3:00 AM45 °FOvercast.5 mph87%29.91 "Hg12 mi
2:00 AM44 °FOvercast.3 mph87%29.91 "Hg12 mi
1:00 AM47 °FOvercast.6 mph79%29.90 "Hg12 mi
12:00 AM49 °FOvercast.6 mph72%29.89 "Hg12 mi
10:00 PM
Apr 18
52 °FOvercast.5 mph57%29.85 "Hg12 mi
9:00 PM54 °FLight rain. Overcast.5 mph53%29.83 "Hg12 mi
8:00 PM55 °FOvercast.3 mph50%29.80 "Hg16 mi
7:00 PM60 °FOvercast.1 mph32%29.78 "Hg22 mi
6:00 PM60 °FOvercast.2 mph33%29.77 "Hg22 mi
5:00 PM64 °FPartly sunny.N/A31%29.75 "Hg19 mi
4:00 PM62 °FPassing clouds.3 mph32%29.75 "Hg22 mi
3:00 PM62 °FPassing clouds.5 mph34%29.75 "Hg22 mi
2:00 PM60 °FPassing clouds.5 mph36%29.76 "Hg22 mi
1:00 PM59 °FScattered clouds.5 mph36%29.78 "Hg22 mi
12:00 PM56 °FPassing clouds.6 mph38%29.80 "Hg19 mi
Weather by CustomWeather, © 2014

See weather overview